Regional Weather Roundup
Issued by NWS Wakefield, VA

Home | Current Version | Previous Version | Graphics & Text | Print | Product List | Glossary On
Versions: 1 2 3 4 5 6 7 8 9 10 11 12 13 14 15 16 17 18 19 20 21 22 23 24 25 26 27
000
ASUS41 KAKQ 241115
RWRAKQ

REGIONAL WEATHER ROUNDUP
NATIONAL WEATHER SERVICE WAKEFIELD VA
700 AM EDT SUN SEP 24 2017

Note: "fair" indicates few or no clouds below 12,000 feet with no
significant weather and/or obstructions to visibility. * = Denotes
station may not report precipitation (e.g., rain,snow,etc.),
thunder or fog.

VAZ042-051-052>054-056-241200-
NORTHERN VIRGINIA

CITY           SKY/WX    TMP DP  RH WIND       PRES   REMARKS
WASH NATIONAL  PTCLDY    67  61  81 NW6       30.09R
DULLES         PTCLDY    62  60  93 NW5       30.11R
FORT BELVOIR   NOT AVBL
QUANTICO         N/A     64  61  90 NW6       30.10R
FREDERICKSBRG* CLEAR     60  60 100 CALM      30.09R
STAFFORD*      CLEAR     57  57 100 CALM      30.13S
WARRENTON      CLEAR     54  52  92 CALM      30.11R FOG
CULPEPER*      CLEAR     55  55  99 CALM      30.12R
MANASSAS*      CLEAR     56  56 100 CALM      30.11R FOG
LEESBURG*      CLEAR     61  61 100 N3        30.12R
WINCHESTER     CLEAR     54  52  94 CALM      30.15R
FRONT ROYAL*   SUNNY     59  54  82 CALM      30.14R
LURAY*         SUNNY     54  54 100 CALM      30.17R
$$

VAZ048-049-060>072-079>083-241200-
CENTRAL AND SOUTH CENTRAL VIRGINIA

CITY           SKY/WX    TMP DP  RH WIND       PRES   REMARKS
RICHMOND       PTCLDY    62  60  93 N6        30.08R
CHESTERFIELD*  NOT AVBL
PETERSBURG*    CLEAR     59  59 100 CALM      30.09R
HANOVER        CLEAR     60  60 100 MISG      30.10R
TAPPAHANNOCK*  CLEAR    N/A N/A N/A NW3       30.09R
QUINTON*       FAIR      60  60 100 N3        30.07S
CHARLOTTSVILLE CLEAR     59  57  93 CALM      30.12R
GORDONSVILLE*  SUNNY     56  56 100 CALM      30.10S
ORANGE*        CLEAR     55  54  94 CALM      30.11S
LOUISA*        CLEAR     61  55  82 N5        30.10S
BUMPASS*       FAIR      58  58 100 CALM      30.10R
FARMVILLE*     FOG       58  58 100 CALM      30.10R VSB 1
CREWE*         FAIR      59  59 100 CALM      30.10R
FORT PICKETT*  FAIR      65  65 100 N9        30.10R
CHASE CITY*    FAIR      63  63 100 N3        30.10R
CLARKSVILLE*   FAIR      63  63 100 N3        30.09R
SOUTH HILL*    PTCLDY    63  63 100 N3        30.14R
LAWRENCEVILLE* FAIR      64  64  97 CALM      30.08R
EMPORIA*       CLEAR     63  63 100 NW5       30.09R
$$

VAZ088>098-241200-
SOUTHEAST VIRGINIA

CITY           SKY/WX    TMP DP  RH WIND       PRES   REMARKS
NORFOLK        CLEAR     68  66  93 CALM      30.05R
VIRGINIA BEACH PTCLDY    65  62  90 SW5       30.05R
NORFOLK NAVAL  PTCLDY    66  64  93 CALM      30.07R
WEST POINT*    CLEAR     61  61 100 CALM      30.09R
SALUDA*        FAIR      68  68 100 NW6       30.06S
NEWPORT NEWS   FOG       63  62  97 CALM      30.06R VSB 1/4
LANGLEY AFB    PTCLDY    66  66 100 CALM      30.06R
FORT EUSTIS    CLEAR     69  67  93 NW3       30.04R
WILLIAMSBURG*  CLEAR     66  66 100 N5        30.07R
HR EXEC AP*    FOG       60  59  96 CALM      30.07S VSB 1/4
FRANKLIN*      CLOUDY    60  60  98 CALM      30.07R FOG
US460-WAKEFLD  CLEAR     62  62 100 CALM      30.07R
$$

VAZ020-022-025-037-045-241200-
WEST CENTRAL AND SOUTHWEST VIRGINIA

CITY           SKY/WX    TMP DP  RH WIND       PRES   REMARKS
STAUNTON*      CLEAR     49  48  95 CALM      30.20R
WAYNESBORO*    SUNNY     55  55 100 CALM      30.18R
HOT SPRINGS VA PTCLDY    64  43  46 NE6       30.27S
LYNCHBURG      PTCLDY    64  57  78 CALM      30.13R
DANVILLE       PTCLDY    59  59 100 CALM      30.11R
SOUTH BOSTON*  FAIR      60  58  95 CALM      30.10R
MARTINSVILLE   CLOUDY    57  56  97 CALM      30.15R
ROANOKE        MOCLDY    61  57  87 CALM      30.18R
BLACKSBURG     MOCLDY    56  55  97 CALM      30.22R
DUBLIN*        PTCLDY    56  55  95 CALM      30.20R
MARION*        CLEAR     53  50  90 CALM      30.23R
HILLSVILLE*    CLEAR     56  52  86 CALM      30.21R
RICHLANDS*     FAIR      64  53  67 N5        30.20S
WISE*          CLEAR     63  54  72 CALM      30.21R
ABINGDON*      CLEAR     62  56  82 E7        30.18R
$$

MDZ021>025-VAZ099-100-241200-
SOUTHERN MARYLAND AND THE DELMARVA PENINSULA

CITY           SKY/WX    TMP DP  RH WIND       PRES   REMARKS
PATUXENT RIVER CLEAR     62  62 100 W5        30.06R
BAY BRIDGE APT CLEAR     72  64  78 N5        30.07S
LEONARDTOWN    CLEAR     61  59  94 W3        30.09R
DOVER          NOT AVBL
GEORGETOWN     CLEAR     63  60  90 CALM      30.06S
EASTON         CLEAR     64  63  94 NE5       30.11R
CAMBRIDGE      CLEAR     66  64  94 N6        30.06R
SALISBURY      CLEAR     63  63 100 CALM      30.05R
OCEAN CITY     CLEAR     63  63 100 NW6       30.05R
WALLOPS ISLAND CLEAR    N/A N/A N/A NW6       30.05S
ACCOMACK*      FOG       61  61 100 NW5       30.05R VSB<1/4
$$

NCZ012>017-030>032-241200-
NORTH CENTRAL AND EASTERN NORTH CAROLINA

CITY           SKY/WX    TMP DP  RH WIND       PRES   REMARKS
ROANOKE RAPIDS FAIR      63  63 100 CALM      30.06S
RALEIGH        MOCLDY    65  63  93 N3        30.08S
ELIZABETH CITY CLOUDY    67  67 100 CALM      30.05R
AHOSKIE*       PTCLDY    62  62 100 CALM      30.07R FOG
EDENTON*       CLOUDY    66  65  95 CALM      30.06R
CURRITUCK*     CLOUDY    65  64  97 CALM      30.06R
KILL DEVIL HLS CLOUDY    69  65  88 CALM      30.03R
MANTEO         CLOUDY    69  67  92 NE6       30.04R
CAPE HATTERAS  CLEAR     73  70  90 NE7       30.01R
TARBORO*       NOT AVBL
GOLDSBORO      PTCLDY    68  68 100 CALM      30.03R
WASHINGTON     PTCLDY    65  64  98 N5        30.05R
GREENVILLE     FOG       63  63 100 N6        30.07R VSB 1
NEW BERN       CLEAR     68  68 100 N6        30.04R
WILMINGTON     CLOUDY    69  68  96 N6        30.02R
$$

VAZ048-241200-
ELSEWHERE

CITY           SKY/WX    TMP DP  RH WIND       PRES   REMARKS
HARRISBURG PA  PTCLDY    65  62  90 N5        30.12R
BALTIMORE      PTCLDY    63  60  90 CALM      30.08R
ANNAPOLIS      CLEAR     71  68  90 NW3       30.07R
ANDREWS AFB    NOT AVBL
PHILADELPHIA   CLEAR     71  60  68 N3        30.08R
HENDERSON NC   PTCLDY    60  59  96 CALM      30.09R
GREENSBORO     MOCLDY    64  60  87 NE3       30.11R
ROCKY MOUNT    PTCLDY    65  65 100 N3        30.06R
$$

VAZ100-241200-
MARINE

STATION/POSITION TIME  TEMP    WIND        PRES    WAVE   SWELL
                       AIR SEA DIR/SP/G            HT/PER HT/PER
                 (UTC) (F)     (DEG/KT/KT) (MB)    (FT/S) (FT/S)
BRANDYWINE LGT   1036   74      40/  7/  8 1018.2R
CAPE MAY NJ      1048   67 74   CALM  /  1 1017.3R
LEWES DE         1048   69 74  290/  4/  5 1017.5R
15NM E FENWICK I 1050   72 71  330/ 10/ 12 1017.6R   3/ 8   3/ 8
OCEAN-CITY-INLET 1048   69 75   10/  6/  7 1017.7R
WACHAPREAGUE VA  1048   69 76  280/  1/  3 1017.5R
THOMAS POINT MD  1100   73 76  360/  8/  8   N/A
GOOSES REEF MD   1100   74 75   30/ 10/ 12 1018.7    0
COVE POINT MD    1048   74     360/  9/ 10 1018.7R
SOLOMONS ISLAND  1048   69 76  310/  4/  5 1017.7R
BISHOPS HEAD MD  1048   71 77  350/  4/  6 1018.0R
PINEY POINT MD   1048          350/  8/  9   N/A
POTOMAC MD       1100   74 76  310/  8/  8 1017.5
CAMBRIDGE MD     1048   70 76              1018.7R
LEWISETTA VA     1048   69 77  300/  3/  4 1018.1R
RAPPAHANNOCK LGT 1048          320/ 10/ 11 1018.3R
STINGRAY PT      1100   73 76  360/  8/  8 1018.2    0
YORK RVR RNG VA  1048   72     340/  7/  8 1018.2R
YORKTOWN VA      1048   72 77  320/  6/  8 1017.5R
JAMESTOWN VA     1100      78  320/  6/  6   N/A     0
DOMINION TERM VA 1048   73     280/  5/  5 1018.0R
KIPTOPEKE VA     1048      75  350/  3/  4   N/A
CHES BAY BRIDGE  1048   74 76  330/  6/  6 1017.6R
CAPE HENRY VA    1048   72     290/  4/  6   N/A
WILLOUBY STN VA  1048   72     320/  4/  5 1017.9R
S CRANEY ISL VA  1048   70     310/  2/  3 1017.5R
CAPE HENRY BUOY  1100      75                N/A     4/14   2/14
1ST LANDING BUOY 1000   74 76              1017.2    1/ 7
64NM E OF VA BCH 1050   70 69  350/  4/  6 1017.7R   9/15   8/15
DUCK PIER NC     1048   74 76   40/  8/  9 1016.8R
44100 DUCK FRF   1035      74                N/A     5/14   3/14
44056 DUCK FRF   1100      75                N/A     5/14   3/14
OREGON INLET NC  1036   72 77   20/ 10/ 12 1016.6R
HATTERAS NC      1048   73 78   40/  9/ 12 1016.0R
DIAMOND SHLS NC  1050   74 74   30/ 17/ 19 1015.2R   7/12   7/12
CAPE LOOKOUT NC  1100   74      20/ 12/ 14 1015.5R
$$




USA.gov is the U.S. government's official web portal to all federal, state and local government web resources and services.